Location: Glion
(46.4330°N, 6.9246°E)
Time: 16:23:44
(UTC+00:00)

Okean 1-7 - Pass Details

Date: 03 March 2021
Orbit: 589 x 619 km, 82.5° (Epoch: 23 April)

Event Time Altitude Azimuth Distance (km) Brightness Sun altitude
Rises 17:57:34 0° 2° (N) 2,899 6.5 -7.0°
Reaches altitude 10° 18:00:14 10° 18° (NNE) 1,984 5.5 -7.5°
Maximum altitude 18:03:40 22° 70° (ENE) 1,351 4.3 -8.1°
Drops below altitude 10° 18:07:03 10° 121° (ESE) 1,958 5.1 -8.7°
Enters shadow 18:08:50 - 133° (SE) 2,546 5.8 -9.0°
